Archimede — IXZR — position and weather

sailwx.info

Track history (hours):
 
Tides and Currents Weather Stations Pressure Air Temp Water Temp Dewpoint Dewpoint Depression Visibility Wind Speed Wind Dir Waves Ship Positions

Archimede

Last reported at 2014-Oct-23 09:33 UTC. Time now 2014-Oct-23 11:00 UTC.
Position N 38°13' E 015°38'.

; draft 3.1 m.

Type: Ship. MMSI: 247054700.

Date/timePositionNaut miles runAvg speedWind from/ knotsBaromVisibWave heightAir tempDewpointWater temp
2014-Oct-23 09:33N 38°13' E 015°38'1 0.7
2014-Oct-23 07:32N 38°13' E 015°36'0 0.1
2014-Oct-23 05:25N 38°13' E 015°36'5 0.4
2014-Oct-22 17:16N 38°09' E 015°33'6 7.9
2014-Oct-22 16:33N 38°13' E 015°37'5 3.6
2014-Oct-22 15:07N 38°09' E 015°33'5 7.5
2014-Oct-22 14:31N 38°13' E 015°36'3 1.6
2014-Oct-22 12:32N 38°10' E 015°35'4 4.3
2014-Oct-22 11:33N 38°13' E 015°38'1 0.6
2014-Oct-22 09:32N 38°13' E 015°37'0 0.0
2014-Oct-22 07:25N 38°13' E 015°37'2 1.2
2014-Oct-22 05:33N 38°11' E 015°35'3 0.6
2014-Oct-22 00:16N 38°13' E 015°38'1 1.3
2014-Oct-21 23:33N 38°13' E 015°37'6 4.8
2014-Oct-21 22:19N 38°08' E 015°32'7 9.1
2014-Oct-21 21:33N 38°13' E 015°38'5 2.5
2014-Oct-21 19:29N 38°09' E 015°34'4 4.6
2014-Oct-21 18:33N 38°13' E 015°37'5 4.5
2014-Oct-21 17:24N 38°09' E 015°33'6 6.2
2014-Oct-21 16:25N 38°13' E 015°38'1 0.4
2014-Oct-21 14:32N 38°13' E 015°37'4 2.2
2014-Oct-21 12:33N 38°09' E 015°34'5 5.1
2014-Oct-21 11:33N 38°13' E 015°38'6 3.9
2014-Oct-21 10:05N 38°09' E 015°33'610.1
2014-Oct-21 09:32N 38°13' E 015°38'1 0.6
2014-Oct-21 07:31N 38°13' E 015°36'2 1.1
2014-Oct-21 05:33N 38°11' E 015°35'3 0.3
2014-Oct-20 18:33N 38°13' E 015°38'6 4.6
2014-Oct-20 17:13N 38°09' E 015°33'6 8.9
2014-Oct-20 16:31N 38°13' E 015°38'1 0.6
2014-Oct-20 14:22N 38°13' E 015°36'3 1.5
2014-Oct-20 12:33N 38°10' E 015°35'1 0.0
2014-Oct-18 19:25N 38°09' E 015°34'5 6.2
2014-Oct-18 18:34N 38°13' E 015°38'1 0.4
2014-Oct-18 16:33N 38°13' E 015°37'3 1.7
2014-Oct-18 14:33N 38°10' E 015°35'2 1.9
2014-Oct-18 13:32N 38°10' E 015°37'2 2.5
2014-Oct-18 12:33N 38°10' E 015°34'5 5.0
2014-Oct-18 11:34N 38°13' E 015°38'1 0.5
2014-Oct-18 09:34N 38°13' E 015°37'0 0.2
2014-Oct-18 07:27N 38°13' E 015°36'4 4.2
2014-Oct-18 06:29N 38°09' E 015°35'1 1.4
2014-Oct-18 05:34N 38°10' E 015°34'4 0.3
2014-Oct-17 16:31N 38°13' E 015°36'2 1.1
2014-Oct-17 14:33N 38°11' E 015°35'1 0.8
2014-Oct-17 13:32N 38°10' E 015°36'1 1.4
2014-Oct-17 12:32N 38°10' E 015°34'5 4.7
2014-Oct-17 11:33N 38°13' E 015°38'5 3.6
2014-Oct-17 10:07N 38°09' E 015°34'5 9.2
2014-Oct-17 09:33N 38°13' E 015°38'0 0.2
2014-Oct-17 07:33N 38°13' E 015°38'1 0.6
2014-Oct-17 05:32N 38°13' E 015°36'1 0.2
2014-Oct-17 01:33N 38°13' E 015°35'0 0.3
2014-Oct-17 00:12N 38°13' E 015°36'1 1.9
2014-Oct-16 23:33N 38°13' E 015°37'0 0.4
2014-Oct-16 22:33N 38°13' E 015°37'2 0.2
2014-Oct-16 13:32N 38°11' E 015°37'4 3.4
2014-Oct-16 12:30N 38°08' E 015°39'1 0.7
2014-Oct-16 11:27N 38°08' E 015°38'2 1.1
2014-Oct-16 10:06N 38°08' E 015°36'5 8.7
2014-Oct-16 09:33N 38°13' E 015°37'0 0.2
2014-Oct-16 07:32N 38°13' E 015°36'5 4.4
2014-Oct-16 06:31N 38°09' E 015°34'1 0.1
2014-Oct-15 17:04N 38°09' E 015°33'510.3
2014-Oct-15 16:33N 38°13' E 015°37'1 0.6
2014-Oct-15 14:33N 38°12' E 015°36'3 3.2
2014-Oct-15 13:33N 38°09' E 015°33'1 1.4
2014-Oct-15 12:33N 38°11' E 015°35'4 3.9
2014-Oct-15 11:33N 38°13' E 015°38'6 4.7
2014-Oct-15 10:13N 38°09' E 015°33'6 8.9
2014-Oct-15 09:32N 38°13' E 015°38'1 0.6
2014-Oct-15 07:33N 38°13' E 015°36'4 3.9
2014-Oct-15 06:30N 38°09' E 015°34'2 2.3
2014-Oct-15 05:33N 38°11' E 015°35'2 0.2
2014-Oct-14 17:08N 38°09' E 015°34'6 9.7
2014-Oct-14 16:33N 38°13' E 015°38'1 0.7
2014-Oct-14 14:26N 38°13' E 015°36'3 1.4
2014-Oct-14 12:31N 38°10' E 015°35'4 4.1
2014-Oct-14 11:33N 38°13' E 015°38'5 3.8
2014-Oct-14 10:10N 38°09' E 015°34'5 8.2
2014-Oct-14 09:33N 38°13' E 015°38'1 0.7
2014-Oct-14 07:32N 38°13' E 015°36'2 0.9
2014-Oct-14 05:33N 38°11' E 015°35'3 0.3
2014-Oct-13 18:33N 38°13' E 015°38'6 4.1
2014-Oct-13 17:11N 38°09' E 015°33'6 9.1
2014-Oct-13 16:33N 38°13' E 015°38'6 3.8
2014-Oct-13 15:06N 38°09' E 015°33'6 1.6
2014-Oct-13 11:33N 38°13' E 015°38'5 3.4
2014-Oct-13 10:04N 38°10' E 015°34'5 9.1
2014-Oct-13 09:33N 38°13' E 015°37'  
Track history (hours):
 
Tides and Currents Weather Stations Pressure Air Temp Water Temp Dewpoint Dewpoint Depression Visibility Wind Speed Wind Dir Waves Ship Positions

Archimede

Last reported at 2014-Oct-23 09:33 UTC. Time now 2014-Oct-23 11:00 UTC.
Position N 38°13' E 015°38'.

; draft 3.1 m.

Type: Ship. MMSI: 247054700.

Date/timePositionNaut miles runAvg speedWind from/ knotsBaromVisibWave heightAir tempDewpointWater temp
2014-Oct-23 09:33N 38°13' E 015°38'1 0.7
2014-Oct-23 07:32N 38°13' E 015°36'0 0.1
2014-Oct-23 05:25N 38°13' E 015°36'5 0.4
2014-Oct-22 17:16N 38°09' E 015°33'6 7.9
2014-Oct-22 16:33N 38°13' E 015°37'5 3.6
2014-Oct-22 15:07N 38°09' E 015°33'5 7.5
2014-Oct-22 14:31N 38°13' E 015°36'3 1.6
2014-Oct-22 12:32N 38°10' E 015°35'4 4.3
2014-Oct-22 11:33N 38°13' E 015°38'1 0.6
2014-Oct-22 09:32N 38°13' E 015°37'0 0.0
2014-Oct-22 07:25N 38°13' E 015°37'2 1.2
2014-Oct-22 05:33N 38°11' E 015°35'3 0.6
2014-Oct-22 00:16N 38°13' E 015°38'1 1.3
2014-Oct-21 23:33N 38°13' E 015°37'6 4.8
2014-Oct-21 22:19N 38°08' E 015°32'7 9.1
2014-Oct-21 21:33N 38°13' E 015°38'5 2.5
2014-Oct-21 19:29N 38°09' E 015°34'4 4.6
2014-Oct-21 18:33N 38°13' E 015°37'5 4.5
2014-Oct-21 17:24N 38°09' E 015°33'6 6.2
2014-Oct-21 16:25N 38°13' E 015°38'1 0.4
2014-Oct-21 14:32N 38°13' E 015°37'4 2.2
2014-Oct-21 12:33N 38°09' E 015°34'5 5.1
2014-Oct-21 11:33N 38°13' E 015°38'6 3.9
2014-Oct-21 10:05N 38°09' E 015°33'610.1
2014-Oct-21 09:32N 38°13' E 015°38'1 0.6
2014-Oct-21 07:31N 38°13' E 015°36'2 1.1
2014-Oct-21 05:33N 38°11' E 015°35'3 0.3
2014-Oct-20 18:33N 38°13' E 015°38'6 4.6
2014-Oct-20 17:13N 38°09' E 015°33'6 8.9
2014-Oct-20 16:31N 38°13' E 015°38'1 0.6
2014-Oct-20 14:22N 38°13' E 015°36'3 1.5
2014-Oct-20 12:33N 38°10' E 015°35'1 0.0
2014-Oct-18 19:25N 38°09' E 015°34'5 6.2
2014-Oct-18 18:34N 38°13' E 015°38'1 0.4
2014-Oct-18 16:33N 38°13' E 015°37'3 1.7
2014-Oct-18 14:33N 38°10' E 015°35'2 1.9
2014-Oct-18 13:32N 38°10' E 015°37'2 2.5
2014-Oct-18 12:33N 38°10' E 015°34'5 5.0
2014-Oct-18 11:34N 38°13' E 015°38'1 0.5
2014-Oct-18 09:34N 38°13' E 015°37'0 0.2
2014-Oct-18 07:27N 38°13' E 015°36'4 4.2
2014-Oct-18 06:29N 38°09' E 015°35'1 1.4
2014-Oct-18 05:34N 38°10' E 015°34'4 0.3
2014-Oct-17 16:31N 38°13' E 015°36'2 1.1
2014-Oct-17 14:33N 38°11' E 015°35'1 0.8
2014-Oct-17 13:32N 38°10' E 015°36'1 1.4
2014-Oct-17 12:32N 38°10' E 015°34'5 4.7
2014-Oct-17 11:33N 38°13' E 015°38'5 3.6
2014-Oct-17 10:07N 38°09' E 015°34'5 9.2
2014-Oct-17 09:33N 38°13' E 015°38'0 0.2
2014-Oct-17 07:33N 38°13' E 015°38'1 0.6
2014-Oct-17 05:32N 38°13' E 015°36'1 0.2
2014-Oct-17 01:33N 38°13' E 015°35'0 0.3
2014-Oct-17 00:12N 38°13' E 015°36'1 1.9
2014-Oct-16 23:33N 38°13' E 015°37'0 0.4
2014-Oct-16 22:33N 38°13' E 015°37'2 0.2
2014-Oct-16 13:32N 38°11' E 015°37'4 3.4
2014-Oct-16 12:30N 38°08' E 015°39'1 0.7
2014-Oct-16 11:27N 38°08' E 015°38'2 1.1
2014-Oct-16 10:06N 38°08' E 015°36'5 8.7
2014-Oct-16 09:33N 38°13' E 015°37'0 0.2
2014-Oct-16 07:32N 38°13' E 015°36'5 4.4
2014-Oct-16 06:31N 38°09' E 015°34'1 0.1
2014-Oct-15 17:04N 38°09' E 015°33'510.3
2014-Oct-15 16:33N 38°13' E 015°37'1 0.6
2014-Oct-15 14:33N 38°12' E 015°36'3 3.2
2014-Oct-15 13:33N 38°09' E 015°33'1 1.4
2014-Oct-15 12:33N 38°11' E 015°35'4 3.9
2014-Oct-15 11:33N 38°13' E 015°38'6 4.7
2014-Oct-15 10:13N 38°09' E 015°33'6 8.9
2014-Oct-15 09:32N 38°13' E 015°38'1 0.6
2014-Oct-15 07:33N 38°13' E 015°36'4 3.9
2014-Oct-15 06:30N 38°09' E 015°34'2 2.3
2014-Oct-15 05:33N 38°11' E 015°35'2 0.2
2014-Oct-14 17:08N 38°09' E 015°34'6 9.7
2014-Oct-14 16:33N 38°13' E 015°38'1 0.7
2014-Oct-14 14:26N 38°13' E 015°36'3 1.4
2014-Oct-14 12:31N 38°10' E 015°35'4 4.1
2014-Oct-14 11:33N 38°13' E 015°38'5 3.8
2014-Oct-14 10:10N 38°09' E 015°34'5 8.2
2014-Oct-14 09:33N 38°13' E 015°38'1 0.7
2014-Oct-14 07:32N 38°13' E 015°36'2 0.9
2014-Oct-14 05:33N 38°11' E 015°35'3 0.3
2014-Oct-13 18:33N 38°13' E 015°38'6 4.1
2014-Oct-13 17:11N 38°09' E 015°33'6 9.1
2014-Oct-13 16:33N 38°13' E 015°38'6 3.8
2014-Oct-13 15:06N 38°09' E 015°33'6 1.6
2014-Oct-13 11:33N 38°13' E 015°38'5 3.4
2014-Oct-13 10:04N 38°10' E 015°34'5 9.1
2014-Oct-13 09:33N 38°13' E 015°37'  

Dump ship's entire track history